Time,TemperatureF,DewpointF,PressureIn,WindDirection,WindDirectionDegrees,WindSpeedMPH,WindSpeedGustMPH,Humidity,HourlyPrecipIn,Conditions,Clouds,dailyrainin,SoftwareType,DateUTC
2013-01-27 00:00:00,31.0,-99.9,-100.00,SSE,151,11.0,16.0,-999,0.00,,,0.00,,2013-01-27 06:00:00,
2013-01-27 00:32:00,31.0,-99.9,-100.00,SSE,151,11.0,16.0,-999,0.00,,,0.00,,2013-01-27 06:32:00,
2013-01-27 00:42:00,31.0,-99.9,-100.00,SSE,151,11.0,16.0,-999,0.00,,,0.00,,2013-01-27 06:42:00,
2013-01-27 00:52:00,31.0,-99.9,-100.00,SSE,151,11.0,16.0,-999,0.00,,,0.00,,2013-01-27 06:52:00,
2013-01-27 01:00:00,30.0,-99.9,-100.00,SSE,149,11.0,17.0,-999,0.00,,,0.00,,2013-01-27 07:00:00,
2013-01-27 01:32:00,30.0,-99.9,-100.00,SSE,149,11.0,17.0,-999,0.00,,,0.00,,2013-01-27 07:32:00,
2013-01-27 01:42:00,30.0,-99.9,-100.00,SSE,149,11.0,17.0,-999,0.00,,,0.00,,2013-01-27 07:42:00,
2013-01-27 01:52:00,30.0,-99.9,-100.00,SSE,149,11.0,17.0,-999,0.00,,,0.00,,2013-01-27 07:52:00,
2013-01-27 02:00:00,30.0,-99.9,-100.00,SSE,151,12.0,16.0,-999,0.00,,,0.00,,2013-01-27 08:00:00,
2013-01-27 02:42:00,30.0,-99.9,-100.00,SSE,151,12.0,16.0,-999,0.00,,,0.00,,2013-01-27 08:42:00,
2013-01-27 02:52:00,30.0,-99.9,-100.00,SSE,151,12.0,16.0,-999,0.00,,,0.00,,2013-01-27 08:52:00,
2013-01-27 03:00:00,31.0,-99.9,-100.00,SSE,154,13.0,20.0,-999,0.00,,,0.00,,2013-01-27 09:00:00,
2013-01-27 03:42:00,31.0,-99.9,-100.00,SSE,154,13.0,20.0,-999,0.00,,,0.00,,2013-01-27 09:42:00,
2013-01-27 03:52:00,31.0,-99.9,-100.00,SSE,154,13.0,20.0,-999,0.00,,,0.00,,2013-01-27 09:52:00,
2013-01-27 04:00:00,32.0,-99.9,-100.00,SSE,155,13.0,21.0,-999,0.00,,,0.00,,2013-01-27 10:00:00,
2013-01-27 04:42:00,32.0,-99.9,-100.00,SSE,155,13.0,21.0,-999,0.00,,,0.00,,2013-01-27 10:42:00,
2013-01-27 04:52:00,32.0,-99.9,-100.00,SSE,155,13.0,21.0,-999,0.00,,,0.00,,2013-01-27 10:52:00,
2013-01-27 05:00:00,32.0,-99.9,-100.00,SSE,159,14.0,20.0,-999,0.00,,,0.00,,2013-01-27 11:00:00,
2013-01-27 05:42:00,32.0,-99.9,-100.00,SSE,159,14.0,20.0,-999,0.00,,,0.00,,2013-01-27 11:42:00,
2013-01-27 05:52:00,32.0,-99.9,-100.00,SSE,159,14.0,20.0,-999,0.00,,,0.00,,2013-01-27 11:52:00,
2013-01-27 06:00:00,31.0,-99.9,-100.00,SSE,158,12.0,18.0,-999,0.00,,,0.00,,2013-01-27 12:00:00,
2013-01-27 06:33:00,31.0,-99.9,-100.00,SSE,158,12.0,18.0,-999,0.00,,,0.00,,2013-01-27 12:33:00,
2013-01-27 06:42:00,31.0,-99.9,-100.00,SSE,158,12.0,18.0,-999,0.00,,,0.00,,2013-01-27 12:42:00,
2013-01-27 06:53:00,31.0,-99.9,-100.00,SSE,158,12.0,18.0,-999,0.00,,,0.00,,2013-01-27 12:53:00,
2013-01-27 07:00:00,31.0,-99.9,-100.00,SSE,151,11.0,17.0,-999,0.00,,,0.00,,2013-01-27 13:00:00,
2013-01-27 07:42:00,31.0,-99.9,-100.00,SSE,151,11.0,17.0,-999,0.00,,,0.00,,2013-01-27 13:42:00,
2013-01-27 07:52:00,31.0,-99.9,-100.00,SSE,151,11.0,17.0,-999,0.00,,,0.00,,2013-01-27 13:52:00,
2013-01-27 08:00:00,31.0,-99.9,-100.00,SE,141,11.0,17.0,-999,0.00,,,0.00,,2013-01-27 14:00:00,
2013-01-27 08:33:00,31.0,-99.9,-100.00,SE,141,11.0,17.0,-999,0.00,,,0.00,,2013-01-27 14:33:00,
2013-01-27 08:43:00,31.0,-99.9,-100.00,SE,141,11.0,17.0,-999,0.00,,,0.00,,2013-01-27 14:43:00,
2013-01-27 08:53:00,31.0,-99.9,-100.00,SE,141,11.0,17.0,-999,0.00,,,0.00,,2013-01-27 14:53:00,
2013-01-27 09:00:00,31.0,-99.9,-100.00,South,173,52.0,131.0,-999,0.00,,,0.00,,2013-01-27 15:00:00,
2013-01-27 09:33:00,31.0,-99.9,-100.00,South,173,52.0,131.0,-999,0.00,,,0.00,,2013-01-27 15:33:00,
2013-01-27 09:43:00,31.0,-99.9,-100.00,South,173,52.0,131.0,-999,0.00,,,0.00,,2013-01-27 15:43:00,
2013-01-27 09:53:00,31.0,-99.9,-100.00,South,173,52.0,131.0,-999,0.00,,,0.00,,2013-01-27 15:53:00,
2013-01-27 10:00:00,32.0,-99.9,-100.00,South,179,127.0,131.0,-999,0.00,,,0.00,,2013-01-27 16:00:00,
2013-01-27 10:33:00,32.0,-99.9,-100.00,South,179,127.0,131.0,-999,0.00,,,0.00,,2013-01-27 16:33:00,
2013-01-27 10:42:00,32.0,-99.9,-100.00,South,179,127.0,131.0,-999,0.00,,,0.00,,2013-01-27 16:42:00,
2013-01-27 10:53:00,32.0,-99.9,-100.00,South,179,127.0,131.0,-999,0.00,,,0.00,,2013-01-27 16:53:00,
2013-01-27 11:00:00,32.0,-99.9,-100.00,South,179,131.0,132.0,-999,0.00,,,0.00,,2013-01-27 17:00:00,
2013-01-27 11:42:00,32.0,-99.9,-100.00,South,179,131.0,132.0,-999,0.00,,,0.00,,2013-01-27 17:42:00,
2013-01-27 11:53:00,32.0,-99.9,-100.00,South,179,131.0,132.0,-999,0.00,,,0.00,,2013-01-27 17:53:00,
2013-01-27 12:00:00,33.0,-99.9,-100.00,South,179,127.0,131.0,-999,0.00,,,0.00,,2013-01-27 18:00:00,
2013-01-27 12:42:00,33.0,-99.9,-100.00,South,179,127.0,131.0,-999,0.00,,,0.00,,2013-01-27 18:42:00,
2013-01-27 12:53:00,33.0,-99.9,-100.00,South,179,127.0,131.0,-999,0.00,,,0.00,,2013-01-27 18:53:00,
2013-01-27 13:00:00,33.0,-99.9,-100.00,SSE,154,98.0,145.0,-999,0.00,,,0.00,,2013-01-27 19:00:00,
2013-01-27 13:42:00,33.0,-99.9,-100.00,SSE,154,98.0,145.0,-999,0.00,,,0.00,,2013-01-27 19:42:00,
2013-01-27 13:52:00,33.0,-99.9,-100.00,SSE,154,98.0,145.0,-999,0.00,,,0.00,,2013-01-27 19:52:00,
2013-01-27 14:00:00,33.0,-99.9,-100.00,SE,142,99.0,131.0,-999,0.00,,,0.00,,2013-01-27 20:00:00,
2013-01-27 14:43:00,33.0,-99.9,-100.00,SE,142,99.0,131.0,-999,0.00,,,0.00,,2013-01-27 20:43:00,
2013-01-27 14:52:00,33.0,-99.9,-100.00,SE,142,99.0,131.0,-999,0.00,,,0.00,,2013-01-27 20:52:00,
2013-01-27 15:00:00,33.0,-99.9,-100.00,SE,129,6.0,11.0,-999,0.15,,,0.15,,2013-01-27 21:00:00,
2013-01-27 15:43:00,33.0,-99.9,-100.00,SE,129,6.0,11.0,-999,0.15,,,0.15,,2013-01-27 21:43:00,
2013-01-27 15:52:00,33.0,-99.9,-100.00,SE,129,6.0,11.0,-999,0.15,,,0.15,,2013-01-27 21:52:00,
2013-01-27 19:00:00,37.0,-99.9,-100.00,SSE,165,10.0,17.0,-999,0.00,,,0.26,,2013-01-28 01:00:00,
2013-01-27 19:43:00,37.0,-99.9,-100.00,SSE,165,10.0,17.0,-999,0.00,,,0.26,,2013-01-28 01:43:00,
2013-01-27 19:52:00,37.0,-99.9,-100.00,SSE,165,10.0,17.0,-999,0.00,,,0.26,,2013-01-28 01:52:00,
2013-01-27 20:00:00,38.0,-99.9,-100.00,SSE,161,14.0,18.0,-999,0.00,,,0.26,,2013-01-28 02:00:00,
2013-01-27 20:42:00,38.0,-99.9,-100.00,SSE,161,14.0,18.0,-999,0.00,,,0.26,,2013-01-28 02:42:00,
2013-01-27 20:53:00,38.0,-99.9,-100.00,SSE,161,14.0,18.0,-999,0.00,,,0.26,,2013-01-28 02:53:00,
2013-01-27 21:00:00,39.0,-99.9,-100.00,SSE,157,11.0,16.0,-999,0.00,,,0.26,,2013-01-28 03:00:00,
2013-01-27 21:42:00,39.0,-99.9,-100.00,SSE,157,11.0,16.0,-999,0.00,,,0.26,,2013-01-28 03:42:00,
2013-01-27 21:53:00,39.0,-99.9,-100.00,SSE,157,11.0,16.0,-999,0.00,,,0.26,,2013-01-28 03:53:00,
2013-01-27 22:00:00,40.0,-99.9,-100.00,SSE,164,10.0,14.0,-999,0.00,,,0.26,,2013-01-28 04:00:00,
2013-01-27 22:52:00,40.0,-99.9,-100.00,SSE,164,10.0,14.0,-999,0.00,,,0.26,,2013-01-28 04:52:00,
2013-01-27 23:00:00,42.0,-99.9,-100.00,SSE,164,9.0,13.0,-999,0.01,,,0.27,,2013-01-28 05:00:00,
2013-01-27 23:32:00,42.0,-99.9,-100.00,SSE,164,9.0,13.0,-999,0.01,,,0.27,,2013-01-28 05:32:00,
2013-01-27 23:42:00,42.0,-99.9,-100.00,SSE,164,9.0,13.0,-999,0.01,,,0.27,,2013-01-28 05:42:00,
2013-01-27 23:53:00,42.0,-99.9,-100.00,SSE,164,9.0,13.0,-999,0.01,,,0.27,,2013-01-28 05:53:00,